Location: Unspecified
(0.0000°N, 0.0000°E)
Time: 18:26:41
(UTC+00:00)

Vanguard 3 - Pass Details

Date: 15 December 2017
Orbit: 508 x 3264 km, 33.3° (Epoch: 23 June)

Event Time Altitude Azimuth Distance (km) Brightness Sun altitude
Rises 23:28:35 0° 252° (WSW) 5,482 11.6 -65.8°
Reaches altitude 10° 23:33:19 10° 237° (WSW) 4,936 11.3 -66.1°
Maximum altitude 23:43:45 21° 193° (SSW) 4,806 11.1 -66.5°
Drops below altitude 10° 23:56:44 10° 150° (SSE) 6,177 11.8 -66.7°
Sets 00:03:59 0° 136° (SE) 7,219 12.2 -66.6°
